When you browse on this site, cookies collect data to enhance your experience and personalize the content and advertising you see.
Visit our Privacy Policy to learn more. By continuing to use the site, you agree to this use of cookies and data.

Stündliche Wetter Punta Gorda

Heute, 19 September, Samstag

Zeit Temperatur Niederschläge Wind Luftdruck Luftfeuchtigkeit
00:00 +26°C° 2.4 mm 2 m/S 758 mmHg 96%
01:00 +26°C° 0.5 mm 3 m/S 758 mmHg 96%
02:00 +26°C° 0.5 mm 3 m/S 757 mmHg 97%
03:00 +26°C° 0.5 mm 3 m/S 757 mmHg 97%
04:00 +26°C° 0.2 mm 3 m/S 757 mmHg 97%
05:00 +26°C° 0.2 mm 3 m/S 757 mmHg 97%
06:00 +26°C° 0.2 mm 3 m/S 758 mmHg 97%
07:00 +28°C° 0 mm 3 m/S 758 mmHg 87%
08:00 +29°C° 0 mm 3 m/S 758 mmHg 78%
09:00 +31°C° 0 mm 2 m/S 758 mmHg 69%
10:00 +34°C° 0 mm 2 m/S 758 mmHg 62%
11:00 +35°C° 0 mm 1 m/S 757 mmHg 56%
12:00 +36°C° 0 mm 1 m/S 757 mmHg 49%
13:00 +35°C° 0.1 mm 1 m/S 756 mmHg 52%
14:00 +36°C° 0.1 mm 2 m/S 755 mmHg 56%
15:00 +35°C° 0.1 mm 2 m/S 755 mmHg 59%
16:00 +32°C° 0.2 mm 2 m/S 755 mmHg 67%
17:00 +31°C° 0.2 mm 2 m/S 755 mmHg 74%
18:00 +29°C° 0.2 mm 3 m/S 756 mmHg 82%
19:00 +29°C° 0.3 mm 2 m/S 756 mmHg 85%
20:00 +28°C° 0.3 mm 2 m/S 757 mmHg 89%
21:00 +27°C° 0.3 mm 1 m/S 758 mmHg 92%
22:00 +27°C° 0.5 mm 1 m/S 758 mmHg 94%
23:00 +26°C° 0.5 mm 1 m/S 758 mmHg 96%

Morgen, 20 September, Sonntag

Zeit Temperatur Niederschläge Wind Luftdruck Luftfeuchtigkeit
00:00 +26°C° 0.5 mm 1 m/S 758 mmHg 97%
01:00 +26°C° 1.1 mm 1 m/S 757 mmHg 97%
02:00 +26°C° 1.1 mm 2 m/S 757 mmHg 98%
03:00 +26°C° 1.1 mm 2 m/S 757 mmHg 98%
04:00 +26°C° 0.1 mm 2 m/S 757 mmHg 97%
05:00 +25°C° 0.1 mm 2 m/S 757 mmHg 97%
06:00 +25°C° 0.1 mm 2 m/S 758 mmHg 97%
07:00 +27°C° 0 mm 2 m/S 758 mmHg 89%
08:00 +29°C° 0 mm 2 m/S 759 mmHg 82%
09:00 +31°C° 0 mm 2 m/S 759 mmHg 74%
10:00 +31°C° 0.5 mm 2 m/S 759 mmHg 77%
11:00 +32°C° 0.5 mm 2 m/S 758 mmHg 79%
12:00 +32°C° 0.5 mm 2 m/S 758 mmHg 81%
13:00 +32°C° 0.5 mm 1 m/S 757 mmHg 78%
14:00 +32°C° 0.5 mm 1 m/S 757 mmHg 74%
15:00 +32°C° 0.5 mm 1 m/S 756 mmHg 70%
16:00 +31°C° 0.2 mm 1 m/S 756 mmHg 76%
17:00 +30°C° 0.2 mm 1 m/S 757 mmHg 82%
18:00 +28°C° 0.2 mm 1 m/S 757 mmHg 87%
19:00 +28°C° 0.8 mm 1 m/S 758 mmHg 90%
20:00 +27°C° 0.8 mm 1 m/S 758 mmHg 92%
21:00 +26°C° 0.8 mm 1 m/S 759 mmHg 95%
22:00 +26°C° 0.8 mm 1 m/S 759 mmHg 95%
23:00 +26°C° 0.8 mm 1 m/S 759 mmHg 96%

übermorgen, 21 September, Montag

Zeit Temperatur Niederschläge Wind Luftdruck Luftfeuchtigkeit
00:00 +26°C° 0.8 mm 2 m/S 759 mmHg 97%
01:00 +26°C° 0.4 mm 2 m/S 759 mmHg 97%
02:00 +26°C° 0.4 mm 2 m/S 758 mmHg 97%
03:00 +26°C° 0.4 mm 2 m/S 758 mmHg 97%
04:00 +25°C° 0 mm 2 m/S 758 mmHg 97%
05:00 +25°C° 0 mm 2 m/S 758 mmHg 97%
06:00 +25°C° 0 mm 2 m/S 758 mmHg 98%
07:00 +27°C° 0.2 mm 2 m/S 759 mmHg 92%
08:00 +29°C° 0.2 mm 1 m/S 759 mmHg 86%
09:00 +30°C° 0.2 mm 1 m/S 760 mmHg 80%
10:00 +31°C° 0.5 mm 1 m/S 759 mmHg 75%
11:00 +32°C° 0.5 mm 1 m/S 759 mmHg 70%
12:00 +33°C° 0.5 mm 1 m/S 758 mmHg 65%
13:00 +33°C° 0.2 mm 1 m/S 758 mmHg 64%
14:00 +34°C° 0.2 mm 2 m/S 757 mmHg 64%
15:00 +34°C° 0.2 mm 2 m/S 756 mmHg 63%
16:00 +31°C° 0.4 mm 2 m/S 757 mmHg 72%
17:00 +29°C° 0.4 mm 2 m/S 757 mmHg 82%
18:00 +27°C° 0.4 mm 2 m/S 758 mmHg 91%
19:00 +27°C° 0.2 mm 1 m/S 758 mmHg 92%
20:00 +26°C° 0.2 mm 1 m/S 759 mmHg 93%
21:00 +26°C° 0.2 mm 1 m/S 760 mmHg 94%
22:00 +25°C° 0.1 mm 1 m/S 759 mmHg 95%
23:00 +25°C° 0.1 mm 1 m/S 759 mmHg 96%

22 September, Dienstag

Zeit Temperatur Niederschläge Wind Luftdruck Luftfeuchtigkeit
00:00 +25°C° 0.1 mm 1 m/S 759 mmHg 96%
01:00 +25°C° 0 mm 1 m/S 759 mmHg 96%
02:00 +25°C° 0 mm 1 m/S 759 mmHg 96%
03:00 +24°C° 0 mm 1 m/S 758 mmHg 96%
04:00 +24°C° 0 mm 2 m/S 759 mmHg 96%
05:00 +24°C° 0 mm 2 m/S 759 mmHg 96%
06:00 +24°C° 0 mm 2 m/S 759 mmHg 96%
07:00 +27°C° 0 mm 2 m/S 759 mmHg 87%
08:00 +29°C° 0 mm 2 m/S 759 mmHg 77%
09:00 +31°C° 0 mm 2 m/S 760 mmHg 68%
10:00 +33°C° 0 mm 1 m/S 759 mmHg 62%
11:00 +34°C° 0 mm 1 m/S 759 mmHg 55%
12:00 +36°C° 0 mm 1 m/S 758 mmHg 49%
13:00 +35°C° 0 mm 1 m/S 757 mmHg 51%
14:00 +36°C° 0 mm 2 m/S 757 mmHg 52%
15:00 +35°C° 0 mm 2 m/S 756 mmHg 54%
16:00 +33°C° 0.1 mm 3 m/S 756 mmHg 63%
17:00 +30°C° 0.1 mm 3 m/S 756 mmHg 73%
18:00 +28°C° 0.1 mm 3 m/S 757 mmHg 82%
19:00 +28°C° 0.2 mm 3 m/S 757 mmHg 86%
20:00 +27°C° 0.2 mm 2 m/S 758 mmHg 89%
21:00 +26°C° 0.2 mm 2 m/S 759 mmHg 92%
22:00 +26°C° 0.4 mm 2 m/S 759 mmHg 93%
23:00 +26°C° 0.4 mm 1 m/S 759 mmHg 94%

23 September, Mittwoch

Zeit Temperatur Niederschläge Wind Luftdruck Luftfeuchtigkeit
00:00 +25°C° 0.4 mm 1 m/S 759 mmHg 96%
01:00 +25°C° 0 mm 1 m/S 758 mmHg 96%
02:00 +25°C° 0 mm 1 m/S 758 mmHg 96%
03:00 +25°C° 0 mm 1 m/S 758 mmHg 97%
04:00 +25°C° 0 mm 1 m/S 758 mmHg 97%
05:00 +25°C° 0 mm 2 m/S 758 mmHg 97%
06:00 +25°C° 0 mm 2 m/S 758 mmHg 97%
07:00 +27°C° 0 mm 2 m/S 758 mmHg 87%
08:00 +29°C° 0 mm 1 m/S 759 mmHg 77%
09:00 +31°C° 0 mm 1 m/S 759 mmHg 67%
10:00 +33°C° 0 mm 1 m/S 758 mmHg 61%
11:00 +34°C° 0 mm 1 m/S 758 mmHg 54%
12:00 +37°C° 0 mm 2 m/S 757 mmHg 48%
13:00 +36°C° 0 mm 2 m/S 757 mmHg 48%
14:00 +36°C° 0 mm 3 m/S 756 mmHg 49%
15:00 +35°C° 0 mm 3 m/S 755 mmHg 50%
16:00 +34°C° 0 mm 3 m/S 755 mmHg 59%
17:00 +31°C° 0 mm 3 m/S 756 mmHg 68%
18:00 +29°C° 0 mm 2 m/S 756 mmHg 77%
19:00 +28°C° 0.1 mm 2 m/S 757 mmHg 80%
20:00 +27°C° 0.1 mm 2 m/S 757 mmHg 83%
21:00 +27°C° 0.1 mm 2 m/S 758 mmHg 87%
22:00 +26°C° 0.2 mm 2 m/S 758 mmHg 88%
23:00 +26°C° 0.2 mm 1 m/S 758 mmHg 89%

24 September, Donnerstag

Zeit Temperatur Niederschläge Wind Luftdruck Luftfeuchtigkeit
00:00 +26°C° 0.2 mm 1 m/S 758 mmHg 90%
01:00 +26°C° 0.3 mm 1 m/S 758 mmHg 91%
02:00 +25°C° 0.3 mm 1 m/S 757 mmHg 92%
03:00 +25°C° 0.3 mm 1 m/S 757 mmHg 93%
04:00 +25°C° 0 mm 1 m/S 757 mmHg 93%
05:00 +25°C° 0 mm 1 m/S 757 mmHg 94%
06:00 +25°C° 0 mm 1 m/S 757 mmHg 94%
07:00 +27°C° 0 mm 1 m/S 758 mmHg 84%
08:00 +30°C° 0 mm 1 m/S 758 mmHg 74%
09:00 +32°C° 0 mm 1 m/S 758 mmHg 64%
10:00 +34°C° 0 mm 1 m/S 758 mmHg 58%
11:00 +35°C° 0 mm 1 m/S 757 mmHg 52%
12:00 +38°C° 0 mm 2 m/S 757 mmHg 46%
13:00 +37°C° 0 mm 2 m/S 756 mmHg 48%
14:00 +36°C° 0 mm 3 m/S 755 mmHg 50%
15:00 +36°C° 0 mm 4 m/S 755 mmHg 52%
16:00 +34°C° 0 mm 4 m/S 755 mmHg 61%
17:00 +32°C° 0 mm 4 m/S 755 mmHg 70%
18:00 +29°C° 0 mm 3 m/S 756 mmHg 79%
19:00 +28°C° 0 mm 3 m/S 757 mmHg 82%
20:00 +28°C° 0 mm 3 m/S 757 mmHg 84%
21:00 +27°C° 0 mm 3 m/S 758 mmHg 87%
22:00 +27°C° 0.3 mm 2 m/S 758 mmHg 89%
23:00 +26°C° 0.3 mm 2 m/S 758 mmHg 92%
Mehr zeigen